Location: Albany
(35.0000°S, 118.0000°E)
Time: 04:24:20
(UTC-05:00)

Cosmos 1933 - Visible Passes

Search period start: 30 January 2015 00:00
Search period end: 09 February 2015 00:00
Orbit: 554 x 570 km, 82.5° (Epoch: 29 January)

Date Brightness Start Highest point End Pass type
(mag) Time Alt. Az. Time Alt. Az. Time Alt. Az.
01 Feb 5.3 16:01:56 10° SSE 16:05:44 36° ESE 16:09:30 10° NNE visible
02 Feb 4.8 16:01:15 10° S 16:05:12 44° E 16:09:06 10° NNE visible
03 Feb 4.3 16:00:36 10° S 16:04:39 55° E 16:08:38 10° NNE visible
04 Feb 3.8 15:59:58 10° S 16:04:05 69° E 16:08:07 10° NNE visible
05 Feb 3.4 15:59:22 10° S 16:03:30 86° E 16:07:34 10° N visible
06 Feb 3.3 15:58:48 10° S 16:02:55 76° W 16:06:58 10° N visible
07 Feb 3.4 15:58:15 10° SSW 16:02:19 60° W 16:06:18 10° N visible
08 Feb 3.6 15:57:44 10° SSW 16:01:43 48° W 16:05:37 10° NNW visible
